Location: Beekmeers
(50.8953°N, 3.6968°E)
Time: 19:34:51
(UTC+00:00)

CZ-2C R/B - Pass Details

Date: 23 May 2024
Orbit: 783 x 868 km, 98.3° (Epoch: 14 June)

Event Time Altitude Azimuth Distance (km) Brightness Sun altitude
Exits shadow 02:29:15 - 195° (SSW) 2,381 4.5 -9.6°
Reaches altitude 10° 02:29:22 10° 196° (SSW) 2,338 4.4 -9.6°
Maximum altitude 02:34:08 38° 264° (W) 1,194 3.2 -9.1°
Drops below altitude 10° 02:38:57 10° 332° (NNW) 2,362 5.3 -8.6°
Sets 02:41:28 0° 340° (NNW) 3,302 6.2 -8.3°
